ヒル彗星

211P/Hill (2022)

English version
Home page
Updated on November 6, 2022

---------------------------------------------------------------------

・ プロフィール

・ 写真集

・ 軌道要素

Epoch 2022 Aug. 9.0 TT = JDT 2459800.5
T 2022 Oct. 4.59513 TT                                  Rudenko
q   2.3276163            (2000.0)            P               Q
n   0.14756331     Peri.    4.27708     -0.51755707     -0.80551603
a   3.5466401      Node   117.13190     +0.77510910     -0.58421983
e   0.3437123      Incl.   18.92090     +0.36240938     +0.09915192
P   6.68
>From 721 observations 2008 Dec. 4-2022 Oct. 30, mean residual 0".8.

・ 光度変化

        m1 = 8.8 + 5 logΔ + 20.0 log r

---------------------------------------------------------------------

軌道要素はM.P.E.C. 2022-V95に掲載されたものです。
光度グラフはComet for Windowsで作成したものです。

---------------------------------------------------------------------

Copyright(C) Seiichi Yoshida (comet@aerith.net). All rights reserved.